Weather History for Oxford, CT

Change the Weather History Date:

Tuesday, September 10, 2013

  Actual Average Record
Temperature  
Mean Temperature 68 °F -  
Max Temperature 78 °F 70 °F 82 °F (2002)
Min Temperature 59 °F 54 °F 44 °F (2003)
Cooling Degree Days 4    
Growing Degree Days 18 (Base 50)    
Moisture  
Dew Point 62 °F    
Average Humidity 83    
Maximum Humidity 94    
Minimum Humidity 74    
Precipitation  
Precipitation 0.05 in - - ()
Sea Level Pressure  
Sea Level Pressure 30.14 in    
Wind  
Wind Speed 6 mph (SW)    
Max Wind Speed 12 mph    
Max Gust Speed 18 mph    
Visibility 7 miles    
Events Rain    
Averages and records for this station are not official NWS values.
T = Trace of Precipitation, MM = Missing Value Source: NWS Daily Summary

Daily Weather History Graph

Daily Weather History Graph

Search for Another Location

Airport:

Trip Planner

Search our weather history database for the weather conditions in past years. The results will help you decide how hot, cold, wet, or windy it might be!

Date:

Astronomy

Sep. 10, 2013 Rise Set
Actual Time 6:28 AM EDT 7:10 PM EDT
Civil Twilight 6:00 AM EDT 7:37 PM EDT
Nautical Twilight 5:26 AM EDT 8:11 PM EDT
Astronomical Twilight 4:52 AM EDT 8:45 PM EDT
Moon 11:55 AM EDT (9/10) 10:06 PM EDT (9/10)
Length of Visible Light 13h 37m
Length of Day
12h 42m
Waxing Crescent, 28% of the Moon is Illuminated
Sep 10
Waxing Crescent
Sep 12
First Quarter
Sep 19
Full
Sep 26
Last Quarter
Oct 4
New

Hourly Weather History & Observations

Time (EDT) Temp. Dew Point Humidity Pressure Visibility Wind Dir Wind Speed Gust Speed Precip Events Conditions
12:15 AM 59.0 °F 51.8 °F 77% 30.19 in 10.0 mi SSW 6.9 mph - N/A   Overcast
12:35 AM 60.8 °F 53.6 °F 77% 30.19 in 10.0 mi SSW 4.6 mph - N/A   Overcast
12:55 AM 60.8 °F 53.6 °F 77% 30.18 in 10.0 mi SSW 5.8 mph - N/A   Overcast
1:15 AM 60.8 °F 53.6 °F 77% 30.18 in 10.0 mi SSW 4.6 mph - N/A   Overcast
1:35 AM 60.8 °F 55.4 °F 82% 30.18 in 10.0 mi SSW 5.8 mph - N/A   Overcast
1:55 AM 62.6 °F 55.4 °F 77% 30.18 in 10.0 mi South 5.8 mph - N/A   Overcast
2:15 AM 62.6 °F 55.4 °F 77% 30.18 in 10.0 mi SSW 4.6 mph - N/A   Overcast
2:35 AM 62.6 °F 55.4 °F 77% 30.18 in 10.0 mi SSW 5.8 mph - N/A   Overcast
2:55 AM 62.6 °F 55.4 °F 77% 30.17 in 10.0 mi South 4.6 mph - N/A   Overcast
3:15 AM 62.6 °F 57.2 °F 82% 30.16 in 10.0 mi SSW 6.9 mph - N/A   Overcast
3:35 AM 62.6 °F 57.2 °F 82% 30.16 in 10.0 mi SSW 4.6 mph - N/A   Overcast
3:55 AM 62.6 °F 57.2 °F 82% 30.15 in 10.0 mi SSW 5.8 mph - N/A   Overcast
4:15 AM 62.6 °F 57.2 °F 82% 30.15 in 10.0 mi SSW 4.6 mph - N/A   Overcast
4:35 AM 62.6 °F 57.2 °F 82% 30.15 in 10.0 mi SSW 4.6 mph - N/A   Overcast
4:55 AM 62.6 °F 57.2 °F 82% 30.15 in 10.0 mi SW 4.6 mph - N/A   Overcast
5:15 AM 62.6 °F 57.2 °F 82% 30.16 in 10.0 mi Calm Calm - N/A   Overcast
5:35 AM 62.6 °F 57.2 °F 82% 30.15 in 9.0 mi SSW 3.5 mph - 0.05 in   Overcast
5:45 AM 62.6 °F 57.2 °F 82% 30.16 in 10.0 mi SSW 5.8 mph - N/A   Overcast
6:19 AM 62.6 °F 59.0 °F 88% 30.16 in 1.0 mi SW 4.6 mph - N/A   Light Drizzle
6:45 AM 62.6 °F 59.0 °F 88% 30.16 in 1.0 mi SSW 6.9 mph - N/A   Light Drizzle
7:45 AM 64.4 °F 60.8 °F 88% 30.17 in 1.0 mi SW 6.9 mph - N/A   Light Drizzle
8:45 AM 64.4 °F 60.8 °F 88% 30.17 in 0.8 mi SW 6.9 mph - N/A   Light Drizzle
9:45 AM 64.4 °F 62.6 °F 94% 30.18 in 1.0 mi SW 6.9 mph - N/A   Light Drizzle
10:45 AM 66.2 °F 62.6 °F 88% 30.18 in 1.2 mi SW 6.9 mph - N/A   Light Drizzle
11:20 AM 66.2 °F 64.4 °F 94% 30.20 in 2.0 mi NW 6.9 mph - N/A Rain Light Rain
11:45 AM 66.2 °F 64.4 °F 94% 30.17 in 2.0 mi West 4.6 mph - N/A Rain Light Rain
12:45 PM 69.8 °F 66.2 °F 88% 30.09 in 3.0 mi SW 5.8 mph - N/A   Overcast
1:00 PM 69.8 °F 66.2 °F 88% 30.09 in 3.0 mi SSW 10.4 mph 18.4 mph N/A   Overcast
1:45 PM 71.6 °F 66.2 °F 83% 30.10 in 4.0 mi WSW 11.5 mph 18.4 mph N/A   Overcast
2:45 PM 71.6 °F 66.2 °F 83% 30.11 in 6.0 mi SW 11.5 mph - N/A   Overcast
3:45 PM 77.0 °F 69.8 °F 78% 30.10 in 6.0 mi SW 8.1 mph - N/A   Mostly Cloudy
4:45 PM 78.8 °F 69.8 °F 74% 30.10 in 6.0 mi SW 6.9 mph - N/A   Mostly Cloudy
5:45 PM 77.0 °F 69.8 °F 78% 30.11 in 6.0 mi SSW 8.1 mph - N/A   Haze
6:50 PM 75.2 °F 68.0 °F 78% 30.10 in 6.0 mi SSW 6.9 mph - N/A   Haze
7:45 PM 73.4 °F 66.2 °F 78% 30.10 in 7.0 mi South 5.8 mph - N/A   Clear
8:45 PM 71.6 °F 66.2 °F 83% 30.11 in 7.0 mi North 4.6 mph - N/A   Clear
8:55 PM 71.6 °F 66.2 °F 83% 30.12 in 7.0 mi SSW 4.6 mph - N/A   Clear
9:15 PM 71.6 °F 66.2 °F 83% 30.12 in 7.0 mi SSW 4.6 mph - N/A   Clear
9:35 PM 71.6 °F 68.0 °F 88% 30.12 in 7.0 mi SW 4.6 mph - N/A   Clear
9:55 PM 71.6 °F 68.0 °F 88% 30.12 in 6.0 mi SW 4.6 mph - N/A   Clear
10:15 PM 71.6 °F 68.0 °F 88% 30.12 in 5.0 mi SW 5.8 mph - N/A   Clear
10:35 PM 71.6 °F 68.0 °F 88% 30.12 in 5.0 mi SSW 4.6 mph - N/A   Clear
10:55 PM 71.6 °F 68.0 °F 88% 30.12 in 5.0 mi SW 5.8 mph - N/A   Clear
11:15 PM 71.6 °F 68.0 °F 88% 30.12 in 5.0 mi SW 4.6 mph - N/A   Clear
11:35 PM 71.6 °F 68.0 °F 88% 30.12 in 5.0 mi SW 5.8 mph - N/A   Clear